User: anonymous   Login
Location: Unspecified
(0.0000°N, 0.0000°E)
Time: 17:30:50
(UTC+02:00)
Language:

Milstar 3 Cent rocket - Orbit

View from above orbital plane
View from above orbital plane
View from above satellite
View from above satellite

Ground track
Ground track

The orbit data is extracted from the following two-line orbital elements,

1 25725U 99023B   15089.06700604 0.00000040  00000-0  90720-4 0    09
2 25725  28.3251 104.2945 2384418 127.9475 232.0520  9.67218885    02
Epoch (UTC): 30 March 2015 01:36:29
Eccentricity: 0.2384418
inclination: 28.3251°
perigee height: 708 km
apogee height: 5145 km
right ascension of ascending node: 104.2945°
argument of perigee: 127.9475°
revolutions per day: 9.67218885
mean anomaly at epoch: 232.0520°
orbit number at epoch: 0

The dashed part of the orbit path shows where the satellite is in the earth's shadow,  

DLR